Home > Weather > Peterborough > Past weeks

Flag for United Kingdom Weather for the Past 2 Weeks in Peterborough, England, United Kingdom

Now
41 °F

Quite cool.


Feels Like: 31 °F
Forecast: 40 / 48 °F
Wind: 23 mph from Southwest

Location: Wittering

Current Time: Feb 7, 2016 at 10:51:34 AM

Latest Report: Feb 7, 2016 at 9:50 AM


Visibility: N/A

Pressure: 29.21 "Hg

Humidity: 87%

Dew point: 37 °F

Location of PeterboroughLocation

Historic Weather in Peterborough — Graph

°F

Peterborough Temperature Yesterday

Maximum temperature yesterday: 52 °F (at 12:50 PM)
Minimum temperature yesterday: 43 °F (at 10:50 PM)
Average temperature yesterday: 49 °F

High & Low Weather Summary for the Past Weeks

 TemperatureHumidityPressure
High57 °F (Jan 24, 1:50 PM)100% (Jan 23, 10:50 AM)30.39 "Hg (Jan 23, 10:50 AM)
Low36 °F (Feb 3, 3:50 AM)50% (Feb 2, 1:50 PM)29.03 "Hg (Feb 6, 8:50 PM)
Average48 °F83%29.88 "Hg
* Reported Jan 23 8:50 AM — Feb 7 8:50 AM, Peterborough, Weather by CustomWeather, © 2016

Note: Actual official high and low records may vary slightly from our data, if they occured in-between our weather recording intervals... More about our weather records

Advertising

Peterborough Weather History for the Previous 24 Hours

 ConditionsComfort  
Time TempWeatherWind HumidityBarometerVisibility
8:50 AM
Sun, Feb 7
39 °FPartly sunny.22 mph87%29.21 "HgN/A
7:50 AM39 °FChilly.17 mph87%29.18 "HgN/A
6:50 AM39 °FChilly.17 mph87%29.18 "HgN/A
5:50 AM39 °FChilly.15 mph87%29.18 "HgN/A
4:50 AM39 °FPassing clouds.16 mph93%29.15 "HgN/A
3:50 AM41 °FQuite cool.15 mph87%29.15 "HgN/A
2:50 AM41 °FPassing clouds.17 mph93%29.12 "HgN/A
1:50 AM41 °FPassing clouds.17 mph87%29.12 "HgN/A
12:50 AM41 °FPassing clouds.13 mph93%29.09 "HgN/A
11:50 PM
Sat, Feb 6
43 °FLight rain. Passing clouds.13 mph87%29.09 "HgN/A
10:50 PM43 °FLight rain. Passing clouds.24 mph93%29.06 "HgN/A
9:50 PM48 °FSprinkles. Passing clouds.22 mph87%29.03 "HgN/A
8:50 PM48 °FPassing clouds.26 mph87%29.03 "HgN/A
7:50 PM48 °FLight rain. Partly cloudy.29 mph87%29.09 "HgN/A
6:50 PM52 °FSprinkles. Partly cloudy.31 mph77%29.09 "HgN/A
5:50 PM52 °FSprinkles. Passing clouds.36 mph77%29.12 "HgN/A
4:50 PM52 °FPartly sunny.35 mph77%29.15 "HgN/A
3:50 PM52 °FBroken clouds.28 mph77%29.18 "HgN/A
2:50 PM52 °FBroken clouds.30 mph77%29.21 "HgN/A
1:50 PM52 °FDrizzle. Overcast.28 mph82%29.27 "HgN/A
12:50 PM52 °FSprinkles. Overcast.26 mph88%29.30 "HgN/A
11:50 AM50 °FSprinkles. Broken clouds.24 mph94%29.36 "HgN/A
10:50 AM50 °FDrizzle. Low clouds.23 mph94%29.39 "HgN/A
Weather by CustomWeather, © 2016

See weather overviewHow to use our weather pages